| time (UTC) | temp F | wind direction | speed knots | gust knots | rain 1hr in | rain 24hr in | rain mn in | humidity % | barometer mb |
| 20260507095900 | 56 | 90 | 2.6 | 5.2 | 0.00 | 0.00 | 0.00 | 72 | 1009.0 |
| 20260507095359 | 54 | 99 | 2.6 | 5.2 | 0.00 | 0.00 | 0.00 | 76 | 1009.4 |
| 20260507094859 | 54 | 118 | 2.6 | 5.2 | 0.00 | 0.00 | 0.00 | 78 | 1009.5 |
| 20260507094400 | 53 | 137 | 2.6 | 4.3 | 0.00 | 0.00 | 0.00 | 80 | 1009.5 |
| 20260507093900 | 51 | 136 | 0.9 | 2.6 | 0.00 | 0.00 | 0.00 | 82 | 1009.8 |
| 20260507093359 | 51 | 105 | 1.7 | 5.2 | 0.00 | 0.00 | 0.00 | 84 | 1009.8 |
| 20260507092900 | 51 | 128 | 5.2 | 7.8 | 0.00 | 0.00 | 0.00 | 86 | 1009.9 |
| 20260507092359 | 50 | 108 | 2.6 | 5.2 | 0.00 | 0.00 | 0.00 | 89 | 1010.1 |
| 20260507091900 | 49 | 113 | 2.6 | 5.2 | 0.00 | 0.00 | 0.00 | 91 | 1010.3 |
| 20260507091400 | 49 | 102 | 4.3 | 7.0 | 0.00 | 0.00 | 0.00 | 93 | 1010.2 |
| 20260507090900 | 48 | 113 | 2.6 | 5.2 | 0.00 | 0.00 | 0.00 | 95 | 1010.4 |
| 20260507090359 | 47 | 119 | 2.6 | 4.3 | 0.00 | 0.00 | 0.00 | 97 | 1010.6 |
| 20260507085859 | 48 | 126 | 2.6 | 4.3 | 0.00 | 0.00 | 0.00 | 99 | 1010.4 |
| 20260507085400 | 47 | 150 | 0.9 | 2.6 | 0.00 | 0.00 | 0.00 | 99 | 1010.5 |
| 20260507084859 | 47 | 57 | 1.7 | 4.3 | 0.00 | 0.00 | 0.00 | 99 | 1010.5 |
| 20260507083900 | 47 | 81 | 2.6 | 7.0 | 0.00 | 0.00 | 0.00 | 99 | 1010.6 |
| 20260507083400 | 47 | 107 | 2.6 | 5.2 | 0.00 | 0.00 | 0.00 | 99 | 1010.6 |
| 20260507082400 | 46 | 68 | 5.2 | 7.0 | 0.00 | 0.00 | 0.00 | 99 | 1010.7 |
| 20260507081400 | 45 | 138 | 2.6 | 7.8 | 0.00 | 0.00 | 0.00 | 99 | 1010.8 |
| 20260507080900 | 45 | 69 | 2.6 | 5.2 | 0.00 | 0.00 | 0.00 | 99 | 1010.9 |
| 20260507075859 | 44 | 98 | 2.6 | 5.2 | 0.00 | 0.00 | 0.00 | 99 | 1011.0 |
| 20260507075400 | 44 | 359 | 1.7 | 5.2 | 0.00 | 0.00 | 0.00 | 99 | 1011.3 |
| 20260507074900 | 44 | 117 | 1.7 | 5.2 | 0.00 | 0.00 | 0.00 | 99 | 1011.2 |
| 20260507074359 | 44 | 107 | 1.7 | 4.3 | 0.00 | 0.00 | 0.00 | 99 | 1011.2 |
| 20260507073900 | 44 | 86 | 1.7 | 5.2 | 0.00 | 0.00 | 0.00 | 99 | 1011.1 |
| 20260507073400 | 45 | 353 | 1.7 | 4.3 | 0.00 | 0.00 | 0.00 | 99 | 1011.1 |
| 20260507072859 | 45 | 62 | 2.6 | 5.2 | 0.00 | 0.00 | 0.00 | 99 | 1011.3 |
| 20260507072400 | 44 | 85 | 1.7 | 6.1 | 0.00 | 0.00 | 0.00 | 99 | 1011.5 |
| 20260507071859 | 44 | 91 | 2.6 | 5.2 | 0.00 | 0.00 | 0.00 | 99 | 1011.2 |
| 20260507071400 | 44 | 154 | 4.3 | 5.2 | 0.00 | 0.00 | 0.00 | 99 | 1011.2 |
| 20260507070900 | 44 | 49 | 2.6 | 4.3 | 0.00 | 0.00 | 0.00 | 99 | 1011.2 |
| 20260507070400 | 44 | 44 | 2.6 | 7.0 | 0.00 | 0.00 | 0.00 | 99 | 1011.2 |
| 20260507065900 | 44 | 82 | 3.5 | 6.1 | 0.00 | 0.00 | 0.00 | 99 | 1011.4 |
| 20260507065400 | 44 | 152 | 1.7 | 4.3 | 0.00 | 0.00 | 0.00 | 99 | 1011.4 |
| 20260507064900 | 44 | 90 | 1.7 | 4.3 | 0.00 | 0.00 | 0.00 | 99 | 1011.3 |
| 20260507064400 | 44 | 95 | 2.6 | 6.1 | 0.00 | 0.00 | 0.00 | 99 | 1011.3 |
| 20260507063859 | 44 | 113 | 1.7 | 4.3 | 0.00 | 0.00 | 0.00 | 99 | 1011.5 |
| 20260507063359 | 44 | 302 | 1.7 | 5.2 | 0.00 | 0.00 | 0.00 | 99 | 1011.4 |
| 20260507062900 | 44 | 38 | 2.6 | 5.2 | 0.00 | 0.00 | 0.00 | 99 | 1011.4 |
| 20260507062400 | 44 | 77 | 1.7 | 5.2 | 0.00 | 0.00 | 0.00 | 99 | 1011.4 |
| 20260507061900 | 43 | 87 | 1.7 | 4.3 | 0.00 | 0.00 | 0.00 | 99 | 1011.3 |
| 20260507061400 | 43 | 128 | 1.7 | 5.2 | 0.00 | 0.00 | 0.00 | 99 | 1011.4 |
| 20260507060900 | 43 | 108 | 1.7 | 5.2 | 0.00 | 0.00 | 0.00 | 99 | 1011.2 |
| 20260507060400 | 44 | 354 | 1.7 | 6.1 | 0.00 | 0.00 | 0.00 | 99 | 1011.0 |
| 20260507055859 | 44 | 83 | 2.6 | 6.1 | 0.00 | 0.00 | 0.00 | 99 | 1011.2 |
| 20260507055400 | 44 | 60 | 3.5 | 7.8 | 0.00 | 0.00 | 0.00 | 99 | 1010.9 |
| 20260507054900 | 44 | 37 | 4.3 | 7.0 | 0.00 | 0.00 | 0.00 | 99 | 1011.1 |
| 20260507053900 | 43 | 41 | 2.6 | 4.3 | 0.00 | 0.00 | 0.00 | 99 | 1011.3 |
| 20260507053400 | 42 | 55 | 2.6 | 5.2 | 0.00 | 0.00 | 0.00 | 98 | 1011.4 |
| 20260507052900 | 43 | 120 | 2.6 | 6.1 | 0.00 | 0.00 | 0.00 | 99 | 1011.3 |
| 20260507052400 | 43 | 64 | 2.6 | 6.1 | 0.00 | 0.00 | 0.00 | 99 | 1011.2 |
| 20260507051900 | 43 | 104 | 1.7 | 5.2 | 0.00 | 0.00 | 0.00 | 99 | 1011.3 |
| 20260507051400 | 43 | 17 | 1.7 | 5.2 | 0.00 | 0.00 | 0.00 | 99 | 1011.2 |
| 20260507050900 | 44 | 35 | 2.6 | 6.1 | 0.00 | 0.00 | 0.00 | 99 | 1011.2 |
| 20260507045859 | 43 | 20 | 2.6 | 5.2 | 0.00 | 0.00 | 0.00 | 99 | 1011.2 |
| 20260507045359 | 44 | 35 | 1.7 | 5.2 | 0.00 | 0.00 | 0.00 | 99 | 1011.1 |
| 20260507044359 | 43 | 34 | 5.2 | 7.0 | 0.00 | 0.00 | 0.00 | 99 | 1011.2 |
| 20260507043900 | 43 | 59 | 2.6 | 6.1 | 0.00 | 0.00 | 0.00 | 99 | 1011.4 |
| 20260507043400 | 44 | 44 | 2.6 | 6.1 | 0.00 | 0.00 | 0.00 | 99 | 1011.5 |
| 20260507042900 | 43 | 37 | 4.3 | 7.8 | 0.00 | 0.00 | 0.00 | 99 | 1011.6 |
| 20260507042400 | 43 | 29 | 6.1 | 10.4 | 0.00 | 0.00 | 0.00 | 99 | 1011.2 |
| 20260507041900 | 43 | 23 | 3.5 | 7.0 | 0.00 | 0.00 | 0.00 | 99 | 1011.4 |
| 20260507041400 | 43 | 91 | 2.6 | 4.3 | 0.00 | 0.00 | 0.00 | 99 | 1011.6 |
| 20260507040900 | 43 | 42 | 2.6 | 5.2 | 0.00 | 0.00 | 0.00 | 99 | 1011.5 |
| 20260507040400 | 43 | 58 | 2.6 | 6.1 | 0.00 | 0.00 | 0.00 | 99 | 1011.6 |
| 20260507035900 | 43 | 30 | 2.6 | 7.0 | 0.00 | 0.00 | 0.00 | 99 | 1011.6 |
| 20260507035400 | 43 | 61 | 1.7 | 4.3 | 0.00 | 0.00 | 0.00 | 99 | 1011.4 |
| 20260507034400 | 43 | 73 | 2.6 | 7.0 | 0.00 | 0.00 | 0.00 | 98 | 1011.5 |
| 20260507033900 | 43 | 49 | 5.2 | 7.8 | 0.00 | 0.00 | 0.00 | 98 | 1011.7 |
| 20260507033400 | 43 | 79 | 2.6 | 6.1 | 0.00 | 0.00 | 0.00 | 98 | 1011.5 |
| 20260507031900 | 43 | 39 | 2.6 | 7.0 | 0.00 | 0.00 | 0.00 | 97 | 1011.7 |
| 20260507031400 | 44 | 85 | 0.9 | 4.3 | 0.00 | 0.00 | 0.00 | 97 | 1011.8 |
| 20260507030900 | 44 | 106 | 2.6 | 6.1 | 0.00 | 0.00 | 0.00 | 97 | 1011.6 |
| 20260507030359 | 45 | 68 | 1.7 | 10.4 | 0.00 | 0.00 | 0.00 | 97 | 1011.4 |
| 20260507025900 | 45 | 39 | 7.0 | 11.3 | 0.00 | 0.00 | 0.00 | 97 | 1011.5 |
| 20260507024900 | 44 | 56 | 4.3 | 7.0 | 0.00 | 0.00 | 0.00 | 97 | 1011.6 |
| 20260507024400 | 44 | 42 | 2.6 | 5.2 | 0.00 | 0.00 | 0.00 | 97 | 1011.6 |
| 20260507023859 | 44 | 64 | 4.3 | 5.2 | 0.00 | 0.00 | 0.00 | 97 | 1011.6 |
| 20260507023400 | 44 | 127 | 2.6 | 4.3 | 0.00 | 0.00 | 0.00 | 97 | 1011.7 |
| 20260507022900 | 45 | 35 | 1.7 | 5.2 | 0.00 | 0.00 | 0.00 | 97 | 1011.6 |
| 20260507022400 | 45 | 46 | 2.6 | 5.2 | 0.00 | 0.00 | 0.00 | 97 | 1011.5 |
| 20260507021400 | 45 | 39 | 3.5 | 5.2 | 0.00 | 0.00 | 0.00 | 97 | 1011.7 |
| 20260507020400 | 45 | 50 | 1.7 | 5.2 | 0.00 | 0.00 | 0.00 | 97 | 1011.7 |
| 20260507015900 | 45 | 29 | 3.5 | 4.3 | 0.00 | 0.00 | 0.00 | 98 | 1011.8 |
| 20260507015401 | 45 | 39 | 1.7 | 2.6 | 0.00 | 0.00 | 0.00 | 98 | 1011.8 |
| 20260507014900 | 45 | 12 | 1.7 | 2.6 | 0.00 | 0.00 | 0.00 | 98 | 1011.8 |
| 20260507014400 | 45 | 23 | 1.7 | 2.6 | 0.00 | 0.00 | 0.00 | 98 | 1012.0 |
| 20260507013900 | 45 | 350 | 0.9 | 1.7 | 0.00 | 0.00 | 0.00 | 98 | 1011.8 |
| 20260507013400 | 45 | 25 | 1.7 | 2.6 | 0.00 | 0.00 | 0.00 | 98 | 1011.9 |
| 20260507012900 | 45 | 29 | 1.7 | 2.6 | 0.00 | 0.00 | 0.00 | 98 | 1012.1 |
| 20260507012400 | 44 | 17 | 1.7 | 1.7 | 0.00 | 0.00 | 0.00 | 97 | 1011.9 |
| 20260507011400 | 45 | 238 | 0.9 | 1.7 | 0.00 | 0.00 | 0.00 | 97 | 1012.0 |
| 20260507010401 | 46 | 29 | 2.6 | 7.8 | 0.00 | 0.00 | 0.00 | 97 | 1011.9 |
| 20260507005900 | 45 | 37 | 1.7 | 4.3 | 0.00 | 0.00 | 0.00 | 97 | 1012.1 |
| 20260507005400 | 45 | 20 | 0.9 | 2.6 | 0.00 | 0.00 | 0.00 | 97 | 1012.2 |
| 20260507004900 | 46 | 40 | 1.7 | 4.3 | 0.00 | 0.00 | 0.00 | 96 | 1012.3 |
| 20260507004400 | 46 | 63 | 0.9 | 4.3 | 0.00 | 0.00 | 0.00 | 95 | 1012.3 |
| 20260507003900 | 46 | 48 | 1.7 | 6.1 | 0.00 | 0.00 | 0.00 | 96 | 1012.2 |
| 20260507003400 | 46 | 49 | 4.3 | 6.1 | 0.00 | 0.00 | 0.00 | 95 | 1012.2 |
| 20260507002900 | 46 | 47 | 1.7 | 4.3 | 0.00 | 0.00 | 0.00 | 95 | 1012.2 |
| 20260507002400 | 46 | 71 | 1.7 | 2.6 | 0.00 | 0.00 | 0.00 | 95 | 1012.3 |
| 20260507001900 | 47 | 59 | 2.6 | 6.1 | 0.00 | 0.00 | 0.00 | 94 | 1012.4 |
| 20260507001400 | 47 | 40 | 4.3 | 7.0 | 0.00 | 0.00 | 0.00 | 94 | 1012.4 |
| 20260507000900 | 47 | 65 | 1.7 | 5.2 | 0.00 | 0.00 | 0.00 | 93 | 1012.3 |
| 20260507000400 | 47 | 59 | 2.6 | 5.2 | 0.00 | 0.00 | 0.00 | 93 | 1012.3 |
| 20260506235901 | 47 | 56 | 5.2 | 7.0 | 0.00 | 0.00 | 0.00 | 93 | 1012.3 |
| 20260506234900 | 48 | 44 | 5.2 | 7.8 | 0.00 | 0.00 | 0.00 | 93 | 1012.3 |
| 20260506233900 | 48 | 36 | 4.3 | 7.0 | 0.00 | 0.00 | 0.00 | 92 | 1012.5 |
| 20260506233400 | 48 | 34 | 3.5 | 7.0 | 0.00 | 0.00 | 0.00 | 92 | 1012.6 |
| 20260506232901 | 48 | 51 | 4.3 | 8.7 | 0.00 | 0.00 | 0.00 | 92 | 1012.6 |
| 20260506232400 | 48 | 35 | 6.1 | 11.3 | 0.00 | 0.00 | 0.00 | 92 | 1012.6 |
| 20260506231900 | 48 | 34 | 6.1 | 10.4 | 0.00 | 0.00 | 0.00 | 92 | 1012.6 |
| 20260506231400 | 48 | 33 | 4.3 | 7.8 | 0.00 | 0.00 | 0.00 | 92 | 1012.6 |
| 20260506230900 | 48 | 54 | 2.6 | 8.7 | 0.00 | 0.00 | 0.00 | 92 | 1012.6 |
| 20260506230400 | 48 | 34 | 6.1 | 10.4 | 0.00 | 0.00 | 0.00 | 92 | 1012.8 |
| 20260506225400 | 48 | 19 | 4.3 | 8.7 | 0.00 | 0.00 | 0.00 | 91 | 1012.8 |
| 20260506224900 | 48 | 29 | 3.5 | 8.7 | 0.00 | 0.00 | 0.00 | 91 | 1012.8 |
| 20260506224401 | 48 | 59 | 4.3 | 7.8 | 0.00 | 0.00 | 0.00 | 91 | 1012.8 |
| 20260506223401 | 48 | 37 | 4.3 | 8.7 | 0.00 | 0.00 | 0.00 | 90 | 1012.8 |
| 20260506222900 | 48 | 23 | 4.3 | 7.0 | 0.00 | 0.00 | 0.00 | 90 | 1012.8 |
| 20260506222400 | 48 | 36 | 5.2 | 8.7 | 0.00 | 0.00 | 0.00 | 90 | 1013.0 |
| 20260506221900 | 48 | 27 | 6.1 | 10.4 | 0.00 | 0.00 | 0.00 | 89 | 1012.9 |
| 20260506221400 | 48 | 42 | 5.2 | 12.2 | 0.00 | 0.00 | 0.00 | 89 | 1013.0 |
| 20260506220900 | 49 | 33 | 5.2 | 7.8 | 0.00 | 0.00 | 0.00 | 88 | 1013.0 |
| 20260506220401 | 49 | 30 | 7.0 | 10.4 | 0.00 | 0.00 | 0.00 | 88 | 1013.0 |
| 20260506215907 | 49 | 25 | 4.3 | 8.7 | 0.00 | 0.00 | 0.00 | 88 | 1013.1 |
| 20260506215400 | 49 | 33 | 6.1 | 10.4 | 0.00 | 0.00 | 0.00 | 87 | 1013.0 |
| 20260506214900 | 49 | 26 | 6.1 | 11.3 | 0.00 | 0.00 | 0.00 | 87 | 1013.2 |
| 20260506213900 | 49 | 8 | 2.6 | 8.7 | 0.00 | 0.00 | 0.00 | 86 | 1013.1 |
| 20260506213400 | 49 | 40 | 5.2 | 8.7 | 0.00 | 0.00 | 0.00 | 86 | 1013.4 |
| 20260506212401 | 49 | 37 | 5.2 | 10.4 | 0.00 | 0.00 | 0.00 | 85 | 1013.2 |
| 20260506211900 | 49 | 21 | 7.8 | 11.3 | 0.00 | 0.00 | 0.00 | 84 | 1013.3 |
| 20260506211400 | 49 | 19 | 7.8 | 11.3 | 0.00 | 0.00 | 0.00 | 84 | 1013.1 |
| 20260506210400 | 49 | 19 | 3.5 | 8.7 | 0.00 | 0.00 | 0.00 | 83 | 1013.3 |
| 20260506205900 | 49 | 25 | 5.2 | 7.8 | 0.00 | 0.00 | 0.00 | 83 | 1013.1 |
| 20260506205400 | 49 | 31 | 5.2 | 11.3 | 0.00 | 0.00 | 0.00 | 82 | 1013.2 |
| 20260506204400 | 49 | 40 | 8.7 | 13.9 | 0.00 | 0.00 | 0.00 | 81 | 1013.0 |
| 20260506203900 | 50 | 32 | 6.1 | 12.2 | 0.00 | 0.00 | 0.00 | 81 | 1013.0 |
| 20260506203400 | 50 | 36 | 7.0 | 12.2 | 0.00 | 0.00 | 0.00 | 80 | 1013.1 |
| 20260506202900 | 50 | 47 | 7.0 | 13.9 | 0.00 | 0.00 | 0.00 | 80 | 1012.9 |
| 20260506201900 | 50 | 28 | 7.8 | 13.9 | 0.00 | 0.00 | 0.00 | 78 | 1012.8 |
| 20260506200401 | 50 | 33 | 7.0 | 12.2 | 0.00 | 0.00 | 0.00 | 76 | 1012.4 |
| 20260506195401 | 51 | 43 | 8.7 | 13.9 | 0.00 | 0.00 | 0.00 | 74 | 1012.5 |
| 20260506194901 | 51 | 51 | 8.7 | 17.4 | 0.00 | 0.00 | 0.00 | 73 | 1012.5 |
| 20260506194400 | 51 | 43 | 10.4 | 15.6 | 0.00 | 0.00 | 0.00 | 73 | 1012.6 |
| 20260506193400 | 52 | 36 | 10.4 | 17.4 | 0.00 | 0.00 | 0.00 | 75 | 1012.4 |
| 20260506192900 | 52 | 40 | 9.6 | 17.4 | 0.00 | 0.00 | 0.00 | 76 | 1012.2 |
| 20260506192400 | 52 | 45 | 10.4 | 19.1 | 0.00 | 0.00 | 0.00 | 76 | 1012.3 |
| 20260506191900 | 53 | 48 | 8.7 | 13.9 | 0.00 | 0.00 | 0.00 | 77 | 1012.1 |
| 20260506191400 | 53 | 50 | 7.0 | 13.9 | 0.00 | 0.00 | 0.00 | 77 | 1012.0 |
| 20260506190900 | 54 | 63 | 7.0 | 12.2 | 0.00 | 0.00 | 0.00 | 76 | 1011.9 |
| 20260506190401 | 54 | 55 | 6.1 | 14.8 | 0.00 | 0.00 | 0.00 | 76 | 1011.9 |
| 20260506185900 | 54 | 36 | 11.3 | 15.6 | 0.00 | 0.00 | 0.00 | 74 | 1012.0 |
| 20260506185401 | 55 | 41 | 10.4 | 18.2 | 0.00 | 0.00 | 0.00 | 73 | 1011.8 |
| 20260506184400 | 54 | 18 | 10.4 | 15.6 | 0.00 | 0.00 | 0.00 | 72 | 1011.7 |
| 20260506183900 | 55 | 29 | 10.4 | 13.9 | 0.00 | 0.00 | 0.00 | 71 | 1011.5 |
| 20260506183400 | 55 | 25 | 7.8 | 15.6 | 0.00 | 0.00 | 0.00 | 70 | 1011.6 |
| 20260506182400 | 55 | 18 | 11.3 | 18.2 | 0.00 | 0.00 | 0.00 | 67 | 1011.7 |
| 20260506181901 | 55 | 18 | 11.3 | 15.6 | 0.00 | 0.00 | 0.00 | 66 | 1011.8 |
| 20260506181401 | 55 | 16 | 9.6 | 13.9 | 0.00 | 0.00 | 0.00 | 65 | 1011.7 |
| 20260506180900 | 55 | 35 | 7.0 | 13.0 | 0.00 | 0.00 | 0.00 | 66 | 1011.6 |
| 20260506180401 | 55 | 26 | 6.1 | 13.9 | 0.00 | 0.01 | 0.00 | 68 | 1011.6 |
| 20260506175900 | 55 | 21 | 10.4 | 15.6 | 0.00 | 0.01 | 0.00 | 68 | 1011.8 |
| 20260506175400 | 55 | 13 | 11.3 | 15.6 | 0.00 | 0.01 | 0.00 | 67 | 1011.7 |
| 20260506174900 | 55 | 25 | 7.8 | 13.9 | 0.00 | 0.01 | 0.00 | 68 | 1011.7 |
| 20260506174400 | 55 | 20 | 8.7 | 13.9 | 0.00 | 0.02 | 0.00 | 68 | 1011.5 |
| 20260506173901 | 55 | 17 | 7.8 | 15.6 | 0.00 | 0.02 | 0.00 | 70 | 1011.7 |
| 20260506173400 | 54 | 19 | 7.8 | 15.6 | 0.00 | 0.02 | 0.00 | 70 | 1011.8 |
| 20260506172400 | 54 | 14 | 13.9 | 18.2 | 0.00 | 0.08 | 0.00 | 72 | 1012.0 |
| 20260506171900 | 54 | 24 | 12.2 | 17.4 | 0.00 | 0.08 | 0.00 | 71 | 1011.9 |
| 20260506171401 | 54 | 25 | 12.2 | 18.2 | 0.00 | 0.08 | 0.00 | 71 | 1012.1 |
| 20260506170900 | 54 | 30 | 11.3 | 15.6 | 0.00 | 0.09 | 0.00 | 70 | 1012.0 |
| 20260506165401 | 54 | 18 | 8.7 | 12.2 | 0.00 | 0.12 | 0.00 | 71 | 1012.1 |
| 20260506164900 | 54 | 25 | 7.0 | 14.8 | 0.00 | 0.12 | 0.00 | 71 | 1012.0 |
| 20260506164400 | 54 | 36 | 7.8 | 17.4 | 0.00 | 0.12 | 0.00 | 71 | 1012.1 |
| 20260506163400 | 54 | 24 | 7.8 | 13.0 | 0.00 | 0.12 | 0.00 | 73 | 1011.9 |
| 20260506162900 | 54 | 14 | 8.7 | 14.8 | 0.00 | 0.12 | 0.00 | 71 | 1012.0 |
| 20260506162401 | 54 | 32 | 7.8 | 17.4 | 0.00 | 0.12 | 0.00 | 70 | 1012.2 |
| 20260506160900 | 54 | 13 | 8.7 | 15.6 | 0.00 | 0.12 | 0.00 | 72 | 1012.1 |
| 20260506160400 | 54 | 20 | 10.4 | 15.6 | 0.00 | 0.12 | 0.00 | 73 | 1012.0 |
| 20260506155900 | 54 | 11 | 7.8 | 13.0 | 0.00 | 0.12 | 0.00 | 71 | 1012.1 |
| 20260506155400 | 53 | 20 | 7.8 | 15.6 | 0.00 | 0.12 | 0.00 | 75 | 1012.3 |
| 20260506154901 | 54 | 18 | 10.4 | 15.6 | 0.00 | 0.12 | 0.00 | 76 | 1012.2 |
| 20260506154400 | 54 | 19 | 7.8 | 14.8 | 0.00 | 0.12 | 0.00 | 78 | 1012.3 |
| 20260506153900 | 53 | 15 | 10.4 | 14.8 | 0.00 | 0.12 | 0.00 | 79 | 1012.3 |
| 20260506153401 | 53 | 35 | 10.4 | 15.6 | 0.00 | 0.12 | 0.00 | 80 | 1012.4 |
| 20260506152401 | 53 | 23 | 11.3 | 18.2 | 0.00 | 0.12 | 0.00 | 81 | 1012.5 |
| 20260506151900 | 53 | 18 | 7.8 | 13.9 | 0.00 | 0.12 | 0.00 | 81 | 1012.5 |
| 20260506151400 | 53 | 14 | 12.2 | 15.6 | 0.00 | 0.12 | 0.00 | 80 | 1012.7 |
| 20260506145901 | 53 | 22 | 14.8 | 19.1 | 0.00 | 0.12 | 0.00 | 78 | 1012.8 |
| 20260506144901 | 53 | 24 | 11.3 | 20.9 | 0.00 | 0.12 | 0.00 | 77 | 1012.9 |
| 20260506144401 | 55 | 19 | 15.6 | 20.9 | 0.00 | 0.12 | 0.00 | 74 | 1012.6 |
| 20260506143900 | 56 | 26 | 10.4 | 15.6 | 0.00 | 0.12 | 0.00 | 71 | 1012.5 |
| 20260506143401 | 56 | 19 | 13.9 | 18.2 | 0.00 | 0.12 | 0.00 | 69 | 1012.5 |
| 20260506142900 | 58 | 17 | 11.3 | 18.2 | 0.00 | 0.12 | 0.00 | 65 | 1012.3 |
| 20260506142401 | 57 | 14 | 6.1 | 12.2 | 0.00 | 0.12 | 0.00 | 66 | 1012.4 |
| 20260506141901 | 55 | 334 | 5.2 | 10.4 | 0.00 | 0.12 | 0.00 | 68 | 1012.6 |
| 20260506141401 | 55 | 336 | 5.2 | 12.2 | 0.00 | 0.12 | 0.00 | 69 | 1012.7 |
| 20260506140900 | 55 | 340 | 6.1 | 12.2 | 0.00 | 0.12 | 0.00 | 67 | 1012.6 |
| 20260506140400 | 56 | 322 | 7.0 | 12.2 | 0.00 | 0.12 | 0.00 | 68 | 1012.6 |
| 20260506135900 | 55 | 7 | 6.1 | 11.3 | 0.00 | 0.12 | 0.00 | 67 | 1012.9 |
| 20260506135401 | 55 | 0 | 5.2 | 12.2 | 0.00 | 0.12 | 0.00 | 68 | 1012.9 |
| 20260506134900 | 55 | 5 | 6.1 | 12.2 | 0.00 | 0.12 | 0.00 | 68 | 1013.1 |
| 20260506134400 | 55 | 350 | 6.1 | 11.3 | 0.00 | 0.12 | 0.00 | 69 | 1012.9 |
| 20260506133900 | 55 | 4 | 7.8 | 13.0 | 0.00 | 0.12 | 0.00 | 68 | 1013.1 |
| 20260506133401 | 55 | 355 | 5.2 | 12.2 | 0.00 | 0.12 | 0.00 | 68 | 1013.0 |
| 20260506132901 | 55 | 7 | 5.2 | 12.2 | 0.00 | 0.12 | 0.00 | 68 | 1013.0 |
| 20260506132400 | 57 | 355 | 5.2 | 10.4 | 0.00 | 0.12 | 0.00 | 57 | 1012.6 |
| 20260506131401 | 58 | 54 | 7.8 | 13.0 | 0.00 | 0.13 | 0.00 | 55 | 1012.6 |
| 20260506130901 | 58 | 28 | 4.3 | 7.8 | 0.00 | 0.13 | 0.00 | 55 | 1012.7 |
| 20260506130401 | 57 | 67 | 3.5 | 6.1 | 0.00 | 0.13 | 0.00 | 58 | 1012.9 |
| 20260506125901 | 56 | 339 | 1.7 | 5.2 | 0.00 | 0.13 | 0.00 | 56 | 1012.9 |
| 20260506125406 | 57 | 90 | 1.7 | 4.3 | 0.00 | 0.13 | 0.00 | 57 | 1013.0 |
| 20260506124900 | 57 | 30 | 1.7 | 4.3 | 0.00 | 0.15 | 0.00 | 53 | 1013.0 |
| 20260506124400 | 56 | 95 | 2.6 | 6.1 | 0.00 | 0.19 | 0.00 | 56 | 1013.1 |
| 20260506123401 | 55 | 40 | 4.3 | 7.0 | 0.00 | 0.20 | 0.00 | 55 | 1013.3 |
| 20260506122901 | 58 | 33 | 6.1 | 7.8 | 0.00 | 0.24 | 0.00 | 55 | 1013.1 |
| 20260506121901 | 56 | 82 | 4.3 | 8.7 | 0.00 | 0.26 | 0.00 | 59 | 1013.4 |
| 20260506120400 | 58 | 104 | 4.3 | 7.8 | 0.00 | 0.26 | 0.00 | 55 | 1013.3 |
| 20260506115900 | 58 | 100 | 4.3 | 7.8 | 0.00 | 0.26 | 0.00 | 58 | 1013.3 |
| 20260506115401 | 59 | 84 | 4.3 | 8.7 | 0.00 | 0.26 | 0.00 | 56 | 1013.3 |
| 20260506114901 | 58 | 86 | 2.6 | 7.0 | 0.00 | 0.26 | 0.00 | 56 | 1013.4 |
| 20260506113901 | 56 | 73 | 2.6 | 4.3 | 0.00 | 0.26 | 0.00 | 62 | 1013.9 |
| 20260506113401 | 54 | 76 | 1.7 | 4.3 | 0.00 | 0.26 | 0.00 | 64 | 1014.2 |
| 20260506112901 | 53 | 57 | 2.6 | 4.3 | 0.00 | 0.26 | 0.00 | 67 | 1014.3 |
| 20260506111900 | 52 | 345 | 1.7 | 4.3 | 0.00 | 0.26 | 0.00 | 69 | 1014.5 |
| 20260506111400 | 53 | 272 | 1.7 | 2.6 | 0.00 | 0.26 | 0.00 | 69 | 1014.4 |
| 20260506110900 | 53 | 90 | 0.9 | 4.3 | 0.00 | 0.26 | 0.00 | 68 | 1014.4 |
| 20260506110401 | 54 | 238 | 0.9 | 7.0 | 0.00 | 0.26 | 0.00 | 67 | 1014.3 |
| 20260506105901 | 54 | 34 | 4.3 | 7.0 | 0.00 | 0.26 | 0.00 | 64 | 1014.5 |
| 20260506105401 | 55 | 29 | 6.1 | 8.7 | 0.00 | 0.26 | 0.00 | 63 | 1014.2 |
| 20260506104901 | 57 | 33 | 4.3 | 7.0 | 0.00 | 0.26 | 0.00 | 60 | 1014.0 |
| 20260506104401 | 56 | 88 | 4.3 | 8.7 | 0.00 | 0.26 | 0.00 | 63 | 1014.1 |
| 20260506103401 | 54 | 66 | 3.5 | 5.2 | 0.00 | 0.26 | 0.00 | 65 | 1014.5 |
| 20260506102901 | 53 | 75 | 4.3 | 7.0 | 0.00 | 0.26 | 0.00 | 67 | 1014.7 |
| 20260506102401 | 53 | 59 | 3.5 | 6.1 | 0.00 | 0.26 | 0.00 | 67 | 1014.6 |
| 20260506101401 | 55 | 92 | 2.6 | 7.0 | 0.00 | 0.26 | 0.00 | 69 | 1014.5 |
| 20260506100901 | 55 | 81 | 4.3 | 6.1 | 0.00 | 0.26 | 0.00 | 67 | 1014.3 |
| 20260506100401 | 54 | 101 | 3.5 | 5.2 | 0.00 | 0.26 | 0.00 | 70 | 1014.4 |